DELTA 1 DEB, 7079

Orbit data source: Space-Track

DELTA 1 DEB, 7079 is space debris in SSO originally from a launch on Tue, 06 Nov 1973 UTC launched from the Air Force Western Test Range (AFWTR). Debris objects in space refer to the collection of defunct objects orbiting the Earth. Examples of debris include non-operational satellites, rocket bodies, and fragments generated from explosions, collisions, or faulty payload assembly.

Loading next visibility...
Identifier
7079, 1973-086BX
Orbit
SSO
Country
Flag of USUS
Related business
Manufacturer
Unknown
Mission
Spacecraft
Bus & Motor
Unknown
Mass
Unknown
Launch date (UTC)
1973-11-06 (52 years ago)
Launch vehicle
Unknown
Launch site
Air Force Western Test Range (AFWTR)
Object type
Payload
Rocket body
Debris
Shape & HBR
Unknown shape, 0.3 m
Radar Cross Section
Medium (>0.1 m² and <1 m²)

Expand to show TLE details & history
Last TLE update: 14 hours ago

TLE from 14 hours ago
0 DELTA 1 DEB
1 07079U 73086BX  25292.21250840 -.00000003  00000-0  32689-3 0  9994
2 07079 101.8790 261.0617 0038845 290.1009 186.5790 12.34185513333359
Epoch: 2025-10-19T05:06Z
TLE epoch observation values (Epoch: 2025-10-19T05:06:00.725Z)
Latitude
61.10826°
Longitude
-1.08149°
Altitude
1,572.121 km
Speed
7.074 km/s
True Right ascension
06h 53m 24s
True Declination
60° 58' 39"
Sunlit
Object was in daylight at epoch
Visualization orbit readout
Latitude
Unknown
Longitude
Unknown
Altitude
Unknown
Speed
Unknown
Apparent Right ascension
Unknown
Apparent Declination
Unknown
Sunlit
N/A
Visualization observer readout
Local Sidereal Time
13:40:10
Azimuth
Unknown
Elevation
Unknown
Doppler factor
Unknown
Orbital elements
Apogee altitude
1,559.638 km
Perigee altitude
1,498.208 km
Semi-major axis
7,907.06 km
Eccentricity
0.00388
Inclination
101.879°
RAAN
261.0617°
Arg. of periapsis
290.1009°
True anomaly
186.52824°
Mean anomaly
186.579°
Eccentric anomaly
186.5536°
Mean motion
3.08689 °/min
Orbital period
116.62 mins
BSTAR
0.00032689
Loading maneuver chart data...
Computing Atmospheric mass density...
Loading historical data...
Loading historical data...
Loading historical data...
Loading historical data...
Loading historical data...
Loading historical data...
Loading historical data...

Documentation

Showing up to 5 results
|